Regional Weather Roundup
Issued by NWS

Home | Current Version | Previous Version | Graphics & Text | Print | Product List | Glossary On
Versions: 1 2 3 4 5 6 7 8 9 10 11 12 13 14 15 16 17 18 19 20 21 22 23 24 25 26 27 28 29 30 31 32 33 34 35 36 37 38 39 40 41 42 43 44 45 46 47 48 49 50
354
ASUS43 KMKX 052211
RWRWI

WISCONSIN REGIONAL WEATHER ROUNDUP
NATIONAL WEATHER SERVICE MILWAUKEE/SULLIVAN WI
400 PM CST MON DEC 05 2016

NOTE: "FAIR" INDICATES FEW OR NO CLOUDS BELOW 12,000 FEET WITH NO
SIGNIFICANT WEATHER AND/OR OBSTRUCTIONS TO VISIBILITY.

WIZ001-002-006>008-014>016-023>028-052300-
NORTHWEST WISCONSIN

CITY           SKY/WX    TMP DP  RH WIND       PRES   REMARKS
SUPERIOR ARPT  CLOUDY    37  32  83 E8        29.77R WCI  30
ASHLAND        CLOUDY    36  31  82 MISG      29.80R
HAYWARD        LGT RAIN  33  30  88 E5        29.76F WCI  29
SIREN          LGT SNOW  33  32  96 E9G16     29.70F WCI  25
CUMBERLAND     CLOUDY    32  32 100 SE12      29.73F FOG     WCI  23
RICE LAKE      CLOUDY    33  33  99 SE10      29.77S FOG     WCI  25
CHETEK         CLOUDY    33  33 100 E7G16     29.77F FOG     WCI  26
LADYSMITH      CLOUDY    34  32  93 SE8       29.83S WCI  27
EAU CLAIRE     CLOUDY    36  32  85 SE9       29.78F WCI  29
MENOMONIE      MOCLDY    36  33  90 E13       29.76F FOG     WCI  27
NEW RICHMOND   CLOUDY    36  32  87 SE14      29.69F WCI  27
OSCEOLA        CLOUDY    36  36 100 SE15      29.70F WCI  27
$$

WIZ003>005-009-010-017-018-052300-
NORTH CENTRAL WISCONSIN

CITY           SKY/WX    TMP DP  RH WIND       PRES   REMARKS
MANITOWISH WTR CLOUDY    35  32  88 S6        29.82R WCI  30
ARBOR VITAE    CLOUDY    37  31  81 S5        29.82R WCI  33
WOODRUFF       CLOUDY    37  31  81 S5        29.82R WCI  33
RHINELANDER    CLOUDY    36  30  79 S7G17     29.84R WCI  30
EAGLE RIVER    CLOUDY    36  29  75 CALM      29.81S
LAND O LAKES   PTCLDY    35  30  83 CALM      29.83R
PHILLIPS       CLOUDY    33  31  91 S8        29.81R WCI  26
TOMAHAWK       CLOUDY    32  30  90 CALM      29.84S
MEDFORD        CLOUDY    32  31  95 SE9       29.84R FOG     WCI  24
MERRILL        CLOUDY    33  32  97 S6        29.87R WCI  27
$$

WIZ029-030-035-036-043>047-052300-
CENTRAL WISCONSIN

CITY           SKY/WX    TMP DP  RH WIND       PRES   REMARKS
WAUSAU         CLOUDY    33  31  92 S9        29.87R WCI  25
MOSINEE        CLOUDY    32  32 100 SE8       29.88R FOG     WCI  25
MARSHFIELD     CLOUDY    33  31  92 S10       29.86R FOG     WCI  25
STEVENS POINT  CLOUDY    32  32 100 S8        29.90R FOG     WCI  25
WAUPACA        CLOUDY    35  32  88 S6        29.93R FOG     WCI  30
WAUTOMA        CLOUDY    34  31  88 S8        29.93S FOG     WCI  27
WISC RAPIDS    CLOUDY    34  33  96 S6        29.91R FOG     WCI  29
CAMP DOUGLAS   CLOUDY    36  32  87 SE9       29.88S WCI  29
$$

WIZ011>013-019>022-031-037>040-048>050-052300-
NORTHEAST WISCONSIN

CITY           SKY/WX    TMP DP  RH WIND       PRES   REMARKS
ANTIGO         CLOUDY    31  31  99 S14       29.87R FOG     WCI  21
SHAWANO        CLOUDY    35  32  89 S3        29.93R
OCONTO         CLOUDY    34  31  88 SW5       29.94R WCI  30
STURGEON BAY   CLEAR     34  30  85 S7        29.94R WCI  28
GREEN BAY      CLOUDY    35  34  96 S9        29.95R WCI  28
MANITOWOC      CLOUDY    34  32  92 S9        29.96R FOG     WCI  27
APPLETON       CLOUDY    34  32  93 S9        29.92R FOG     WCI  26
CLINTONVILLE   CLOUDY    32  32 100 S10       29.92R FOG     WCI  24
OSHKOSH        CLOUDY    33  31  92 S13       29.94R FOG     WCI  24
$$

WIZ032>034-041-042-053>061-052300-
SOUTHWEST WISCONSIN

CITY           SKY/WX    TMP DP  RH WIND       PRES   REMARKS
LA CROSSE      CLOUDY    38  32  79 S14       29.84S WCI  30
SPARTA         CLOUDY    36  32  87 S8        29.86F WCI  29
VIROQUA        CLOUDY    33  32  96 S14       29.85S WCI  23
BOSCOBEL       CLOUDY    35  31  85 VRB3      29.91S
PRAIRIE DU CHI MOCLDY    35  30  83 SE7       29.89S WCI  29
PLATTEVILLE    CLOUDY    33  33 100 SE12      29.92R WCI  24
$$

WIZ056-057-062-063-064-067-068-052300-
SOUTH CENTRAL WISCONSIN

CITY           SKY/WX    TMP DP  RH WIND       PRES   REMARKS
REEDSBURG      CLOUDY    33  32  96 S7        29.92R WCI  27
BARABOO/DELLS  CLOUDY    32  31  95 S14       29.92R WCI  22
LONE ROCK      CLOUDY    34  30  85 S8        29.93S WCI  27
MINERAL POINT  CLOUDY    34  34 100 SE10      29.91S FOG     WCI  26
MADISON        CLOUDY    32  30  92 S12       29.94R FOG     WCI  23
MIDDLETON      NOT AVBL
WATERTOWN      CLOUDY    32  32 100 S9        29.95F WCI  24
MONROE         FOG       32  32 100 S12       29.93S VSB 1/4 WCI  23
JANESVILLE     CLOUDY    34  34 100 S7        29.95F FOG     WCI  28
$$

WIZ051-052-058>065-066-070>072-052300-
SOUTHEAST WISCONSIN

CITY           SKY/WX    TMP DP  RH WIND       PRES   REMARKS
MILWAUKEE      CLOUDY    33  31  92 S9        29.98S FOG     WCI  25
WAUKESHA       CLOUDY    30  30 100 S6        29.98S FOG     WCI  24
MILWAUKEE/TIMM CLOUDY    32  30  93 S6        29.99R FOG     WCI  26
RACINE         CLOUDY    33  30  88 S7        30.00F FOG     WCI  27
BURLINGTON     CLOUDY    32  31  97 CALM      29.97F
KENOSHA        CLOUDY    33  31  92 S9        29.98S FOG     WCI  25
FOND DU LAC    CLOUDY    33  29  85 S13       29.96R WCI  24
SHEBOYGAN      CLOUDY    33  31  92 S13       29.96R FOG     WCI  24
WEST BEND      CLOUDY    32  32 100 S5        29.97R FOG     WCI  27
JUNEAU         CLOUDY    31  30  94 S12G17    29.96S WCI  22
$$

LSZ147-162-052300-
LAKE SUPERIOR

STATION/POSITION TIME  TEMP    WIND        PRES    WAVE
                       AIR SEA DIR/SP/G            HT/PER
                 (UTC) (F)     (DEG/KT/KT) (MB)    (FT/S)
DEVILS ISLAND    2200   36      60/ 10/ 12 1009.9R
PORT WING        2130   38      50/  8/ 10 1008.5F
SAXON HARBOR     2200   39     160/  3/ 13 1009.5
$$

LMZ867-665-643>646-052300-
LAKE MICHIGAN

STATION/POSITION TIME  TEMP    WIND        PRES    WAVE
                       AIR SEA DIR/SP/G            HT/PER
                 (UTC) (F)     (DEG/KT/KT) (MB)    (FT/S)
CHAMBERS ISLAND  2140   37     150/  2/ 11 1012.9S
NORTHPORT PIER   2140   37     160/  4/  9 1013.5R
SISTER BAY       2153   36     180/  8/  9   N/A
ALGOMA LAKESHORE 2121          210/ 13/ 15   N/A
KEWAUNEE LAKESHO 2142   35     190/ 10/ 12 1013.7R
SHEBOYGAN LAKESH 2200   35     200/ 16/ 19 1015.2R
PORT WASHINGTON  2140   35     220/  7/ 13 1016.3R
MILWAUKEE LAKESH 2150   34     210/ 11/ 13   N/A
KENOSHA   LAKESH 2200   33     200/  5/  8 1015.6
$$

TC  - TEMPERATURE IN CELSIUS
VSB - VISIBILITY IN STATUTE MILES
WCI - WIND CHILL INDEX
HX  - HEAT INDEX





USA.gov is the U.S. government's official web portal to all federal, state and local government web resources and services.